JBU8385 KBOS-CYHZ

Flight info

Callsign JBU8385
Flight time 1h 2m
Altitude 32000
Route LBSTA8 LBSTA DCT ALLEX FUNDY5
Aircraft A20N/M-SDE2E3FGHIRWXY/LB1

Departure

Time 2026-05-04 22:59
Airport Boston Logan International Airport (KBOS)

Arrival

Time 2026-05-05 00:01
Airport Halifax / Stanfield International Airport (CYHZ)
Time Latitude Longitude Altitude Speed Heading
2026-05-04 22:31 42.36863 -71.01511 17 ft 0 kts 228°
2026-05-04 22:44 42.36865 -71.01507 17 ft 2 kts 228°
2026-05-04 22:44 42.36874 -71.01495 17 ft 2 kts 227°
2026-05-04 22:44 42.36882 -71.01482 17 ft 0 kts 228°
2026-05-04 22:44 42.36891 -71.01470 17 ft 2 kts 210°
2026-05-04 22:45 42.36903 -71.01463 17 ft 2 kts 195°
2026-05-04 22:45 42.36929 -71.01463 17 ft 2 kts 160°
2026-05-04 22:45 42.36941 -71.01472 17 ft 2 kts 141°
2026-05-04 22:46 42.36946 -71.01478 17 ft 1 kts 131°
2026-05-04 22:46 42.36950 -71.01482 17 ft 0 kts 135°
2026-05-04 22:48 42.36949 -71.01482 17 ft 0 kts 135°
2026-05-04 22:49 42.36931 -71.01458 17 ft 7 kts 136°
2026-05-04 22:49 42.36890 -71.01403 17 ft 11 kts 135°
2026-05-04 22:49 42.36843 -71.01338 17 ft 11 kts 128°
2026-05-04 22:49 42.36856 -71.01260 17 ft 12 kts 44°
2026-05-04 22:50 42.36911 -71.01192 17 ft 13 kts 42°
2026-05-04 22:50 42.36981 -71.01114 17 ft 20 kts 27°
2026-05-04 22:50 42.37108 -71.01030 15 ft 23 kts 24°
2026-05-04 22:50 42.37241 -71.00944 14 ft 23 kts 26°
2026-05-04 22:51 42.37375 -71.00872 14 ft 23 kts 18°
2026-05-04 22:51 42.37510 -71.00803 14 ft 22 kts 20°
2026-05-04 22:51 42.37653 -71.00734 14 ft 22 kts 20°
2026-05-04 22:51 42.37779 -71.00672 14 ft 17 kts 21°
2026-05-04 22:52 42.37839 -71.00601 14 ft 10 kts 88°
2026-05-04 22:52 42.37836 -71.00577 14 ft 0 kts 106°
2026-05-04 22:57 42.37831 -71.00554 14 ft 8 kts 108°
2026-05-04 22:57 42.37799 -71.00483 14 ft 11 kts 150°
2026-05-04 22:57 42.37757 -71.00487 14 ft 0 kts 197°
2026-05-04 22:57 42.37756 -71.00487 14 ft 0 kts 197°
2026-05-04 22:58 42.37753 -71.00489 14 ft 7 kts 197°
2026-05-04 22:58 42.37564 -71.00581 14 ft 65 kts 199°
2026-05-04 22:58 42.37112 -71.00803 15 ft 114 kts 199°
2026-05-04 22:58 42.36447 -71.01118 20 ft 153 kts 200°
2026-05-04 22:59 42.35556 -71.01560 358 ft 164 kts 202°
2026-05-04 22:59 42.34438 -71.02073 1053 ft 166 kts 196°
2026-05-04 22:59 42.33242 -71.01916 1880 ft 175 kts 165°
2026-05-04 22:59 42.32330 -71.00913 2435 ft 197 kts 131°
2026-05-04 23:00 42.31646 -70.99039 2876 ft 223 kts 120°
2026-05-04 23:00 42.31034 -70.97215 3274 ft 242 kts 115°
2026-05-04 23:00 42.30884 -70.94527 3907 ft 265 kts 78°
2026-05-04 23:00 42.31500 -70.91506 4546 ft 287 kts 72°
2026-05-04 23:01 42.32161 -70.88370 5301 ft 301 kts 74°
2026-05-04 23:01 42.32760 -70.84963 6415 ft 303 kts 76°
2026-05-04 23:01 42.33275 -70.81655 7497 ft 304 kts 76°
2026-05-04 23:01 42.33827 -70.78108 8607 ft 305 kts 71°
2026-05-04 23:02 42.34994 -70.75399 9506 ft 296 kts 37°
2026-05-04 23:02 42.39125 -70.73138 10948 ft 302 kts 10°
2026-05-04 23:02 42.41412 -70.72287 11335 ft 322 kts 11°
2026-05-04 23:03 42.44091 -70.71230 11967 ft 335 kts 11°
2026-05-04 23:03 42.48733 -70.69740 13436 ft 342 kts
2026-05-04 23:03 42.52150 -70.68720 13972 ft 346 kts
2026-05-04 23:04 42.54860 -70.67910 14031 ft 345 kts
2026-05-04 23:04 42.57248 -70.67197 14090 ft 348 kts
2026-05-04 23:04 42.59923 -70.66394 14715 ft 354 kts
2026-05-04 23:05 42.64791 -70.64925 16162 ft 354 kts
2026-05-04 23:05 42.67852 -70.64031 16995 ft 358 kts
2026-05-04 23:05 42.70688 -70.63369 17867 ft 360 kts
2026-05-04 23:05 42.73765 -70.62700 18649 ft 364 kts
2026-05-04 23:06 42.76627 -70.62075 19354 ft 368 kts
2026-05-04 23:06 42.81456 -70.58456 20565 ft 398 kts 45°
2026-05-04 23:06 42.83345 -70.54678 21357 ft 404 kts 52°
2026-05-04 23:07 42.85458 -70.50066 22143 ft 409 kts 53°
2026-05-04 23:07 42.87301 -70.46074 22685 ft 415 kts 52°
2026-05-04 23:07 42.88773 -70.42918 22873 ft 425 kts 52°
2026-05-04 23:07 42.90724 -70.38760 23123 ft 438 kts 52°
2026-05-04 23:08 42.92942 -70.34041 23373 ft 451 kts 53°
2026-05-04 23:08 42.95010 -70.29645 23595 ft 462 kts 53°
2026-05-04 23:08 42.96762 -70.25916 23808 ft 469 kts 53°
2026-05-04 23:08 42.98853 -70.21452 24273 ft 472 kts 53°
2026-05-04 23:09 43.01095 -70.16659 24781 ft 474 kts 53°
2026-05-04 23:09 43.03175 -70.12210 25220 ft 477 kts 53°
2026-05-04 23:09 43.05327 -70.07606 25613 ft 480 kts 52°
2026-05-04 23:09 43.07012 -70.03992 25930 ft 481 kts 52°
2026-05-04 23:10 43.08693 -70.00382 26240 ft 482 kts 52°
2026-05-04 23:10 43.10486 -69.96529 26567 ft 483 kts 52°
2026-05-04 23:10 43.12287 -69.92656 26836 ft 485 kts 52°
2026-05-04 23:10 43.14107 -69.88734 27072 ft 487 kts 52°
2026-05-04 23:11 43.15903 -69.84863 27361 ft 488 kts 52°
2026-05-04 23:11 43.17704 -69.80978 27633 ft 488 kts 52°
2026-05-04 23:11 43.19528 -69.77033 27843 ft 490 kts 52°
2026-05-04 23:11 43.21323 -69.73141 28386 ft 484 kts 52°
2026-05-04 23:12 43.23104 -69.69264 29174 ft 474 kts 51°
2026-05-04 23:12 43.24854 -69.65458 29695 ft 470 kts 51°
2026-05-04 23:12 43.26569 -69.61732 29973 ft 471 kts 51°
2026-05-04 23:12 43.28325 -69.57922 30205 ft 473 kts 51°
2026-05-04 23:13 43.30074 -69.54114 30423 ft 474 kts 50°
2026-05-04 23:13 43.31844 -69.50258 30666 ft 475 kts 51°
2026-05-04 23:13 43.33601 -69.46423 30910 ft 476 kts 50°
2026-05-04 23:13 43.35348 -69.42606 31102 ft 477 kts 51°
2026-05-04 23:14 43.37117 -69.38738 31265 ft 479 kts 50°
2026-05-04 23:14 43.38876 -69.34883 31430 ft 480 kts 51°
2026-05-04 23:14 43.40628 -69.31036 31569 ft 481 kts 51°
2026-05-04 23:14 43.41790 -69.28484 31654 ft 482 kts 51°
2026-05-04 23:16 43.44733 -69.22002 31847 ft 483 kts 51°
2026-05-04 23:16 43.48243 -69.14232 31856 ft 469 kts 51°
2026-05-04 23:17 43.51649 -69.06687 31862 ft 463 kts 51°
2026-05-04 23:17 43.54978 -68.99311 31860 ft 462 kts 51°
2026-05-04 23:18 43.58351 -68.91813 31858 ft 463 kts 51°
2026-05-04 23:18 43.61739 -68.84260 31853 ft 463 kts 51°
2026-05-04 23:19 43.65107 -68.76731 31853 ft 463 kts 51°
2026-05-04 23:19 43.68485 -68.69152 31849 ft 464 kts 50°
2026-05-04 23:20 43.71841 -68.61614 31850 ft 464 kts 51°
2026-05-04 23:20 43.75214 -68.54012 31849 ft 463 kts 51°
2026-05-04 23:21 43.78568 -68.46431 31847 ft 463 kts 51°
2026-05-04 23:21 43.81908 -68.38866 31849 ft 464 kts 50°
2026-05-04 23:22 43.85274 -68.31220 31849 ft 464 kts 51°
2026-05-04 23:22 43.88626 -68.23584 31848 ft 465 kts 51°
2026-05-04 23:23 43.91954 -68.15985 31849 ft 466 kts 51°
2026-05-04 23:23 43.95312 -68.08298 31847 ft 465 kts 51°
2026-05-04 23:24 43.98650 -68.00632 31850 ft 465 kts 51°
2026-05-04 23:24 44.01955 -67.93021 31848 ft 465 kts 51°
2026-05-04 23:25 44.03705 -67.89340 31884 ft 449 kts 43°
2026-05-04 23:25 44.05505 -67.85695 31864 ft 463 kts 51°
2026-05-04 23:25 44.08709 -67.77872 31846 ft 468 kts 52°
2026-05-04 23:26 44.11931 -67.70064 31843 ft 469 kts 51°
2026-05-04 23:26 44.15209 -67.62334 31835 ft 468 kts 51°
2026-05-04 23:27 44.18544 -67.54530 31843 ft 468 kts 51°
2026-05-04 23:27 44.21874 -67.46742 31834 ft 469 kts 51°
2026-05-04 23:28 44.25194 -67.38955 31843 ft 470 kts 51°
2026-05-04 23:28 44.28523 -67.31130 31844 ft 472 kts 51°
2026-05-04 23:29 44.31863 -67.23250 31839 ft 472 kts 51°
2026-05-04 23:29 44.35181 -67.15398 31832 ft 473 kts 51°
2026-05-04 23:30 44.38470 -67.07516 31837 ft 476 kts 53°
2026-05-04 23:30 44.41276 -66.99195 31838 ft 484 kts 60°
2026-05-04 23:31 44.43383 -66.90231 31827 ft 493 kts 68°
2026-05-04 23:31 44.45000 -66.80885 31856 ft 497 kts 70°
2026-05-04 23:32 44.46578 -66.71465 31810 ft 500 kts 70°
2026-05-04 23:32 44.48156 -66.62117 31840 ft 500 kts 69°
2026-05-04 23:33 44.49751 -66.52674 31831 ft 500 kts 69°
2026-05-04 23:33 44.51350 -66.43185 31831 ft 501 kts 70°
2026-05-04 23:34 44.52937 -66.33720 31832 ft 502 kts 70°
2026-05-04 23:34 44.54520 -66.24243 31822 ft 504 kts 71°
2026-05-04 23:35 44.56099 -66.14709 31836 ft 505 kts 71°
2026-05-04 23:35 44.57678 -66.05106 31827 ft 505 kts 70°
2026-05-04 23:36 44.59245 -65.95551 31829 ft 498 kts 70°
2026-05-04 23:36 44.59993 -65.90926 31818 ft 481 kts 70°
2026-05-04 23:36 44.60722 -65.86421 31831 ft 472 kts 70°
2026-05-04 23:37 44.62159 -65.77552 31439 ft 464 kts 70°
2026-05-04 23:37 44.62867 -65.73174 31014 ft 464 kts 69°
2026-05-04 23:37 44.63581 -65.68767 30459 ft 462 kts 69°
2026-05-04 23:38 44.64283 -65.64438 29956 ft 460 kts 69°
2026-05-04 23:38 44.64983 -65.60095 29439 ft 457 kts 70°
2026-05-04 23:38 44.65674 -65.55766 28937 ft 455 kts 69°
2026-05-04 23:38 44.66361 -65.51458 28447 ft 452 kts 70°
2026-05-04 23:39 44.67041 -65.47186 27977 ft 450 kts 70°
2026-05-04 23:39 44.67730 -65.42868 27447 ft 449 kts 70°
2026-05-04 23:39 44.68397 -65.38658 26931 ft 447 kts 70°
2026-05-04 23:39 44.69066 -65.34409 26491 ft 444 kts 71°
2026-05-04 23:40 44.69727 -65.30199 26018 ft 441 kts 71°
2026-05-04 23:40 44.70388 -65.25993 25526 ft 439 kts 72°
2026-05-04 23:40 44.71035 -65.21856 25044 ft 438 kts 72°
2026-05-04 23:40 44.71683 -65.17707 24534 ft 437 kts 72°
2026-05-04 23:41 44.72332 -65.13544 24042 ft 435 kts 72°
2026-05-04 23:41 44.72970 -65.09425 23587 ft 433 kts 72°
2026-05-04 23:41 44.73604 -65.05327 23143 ft 431 kts 72°
2026-05-04 23:41 44.74239 -65.01225 22704 ft 428 kts 72°
2026-05-04 23:42 44.74862 -64.97190 22256 ft 426 kts 73°
2026-05-04 23:42 44.75483 -64.93160 21797 ft 423 kts 73°
2026-05-04 23:42 44.76096 -64.89172 21411 ft 420 kts 73°
2026-05-04 23:42 44.76709 -64.85171 20968 ft 418 kts 73°
2026-05-04 23:43 44.77331 -64.81168 20535 ft 414 kts 71°
2026-05-04 23:43 44.78134 -64.77328 20103 ft 410 kts 66°
2026-05-04 23:43 44.79037 -64.73550 19680 ft 407 kts 65°
2026-05-04 23:43 44.79942 -64.69830 19251 ft 405 kts 66°
2026-05-04 23:44 44.80836 -64.66084 18826 ft 403 kts 66°
2026-05-04 23:44 44.81704 -64.62373 18396 ft 401 kts 67°
2026-05-04 23:44 44.83466 -64.54655 17571 ft 395 kts 68°
2026-05-04 23:45 44.84293 -64.50995 17187 ft 392 kts 68°
2026-05-04 23:45 44.85098 -64.47424 16795 ft 390 kts 68°
2026-05-04 23:45 44.85915 -64.43790 16396 ft 388 kts 68°
2026-05-04 23:45 44.86719 -64.40207 16014 ft 385 kts 68°
2026-05-04 23:46 44.87524 -64.36616 15633 ft 382 kts 68°
2026-05-04 23:46 44.88303 -64.33134 15239 ft 380 kts 69°
2026-05-04 23:46 44.89085 -64.29646 14842 ft 377 kts 70°
2026-05-04 23:46 44.89874 -64.26107 14439 ft 375 kts 70°
2026-05-04 23:47 44.90641 -64.22649 14022 ft 373 kts 69°
2026-05-04 23:47 44.91414 -64.19161 13632 ft 370 kts 69°
2026-05-04 23:47 44.92181 -64.15705 13254 ft 367 kts 70°
2026-05-04 23:47 44.92938 -64.12296 12876 ft 364 kts 69°
2026-05-04 23:48 44.93678 -64.08942 12482 ft 362 kts 69°
2026-05-04 23:48 44.94428 -64.05547 12079 ft 360 kts 69°
2026-05-04 23:48 44.95164 -64.02204 11708 ft 358 kts 69°
2026-05-04 23:48 44.95898 -63.98866 11346 ft 354 kts 69°
2026-05-04 23:49 44.96625 -63.95564 10948 ft 352 kts 69°
2026-05-04 23:49 44.97346 -63.92281 10623 ft 347 kts 69°
2026-05-04 23:49 44.98041 -63.89100 10359 ft 341 kts 69°
2026-05-04 23:49 44.98734 -63.85935 10051 ft 336 kts 69°
2026-05-04 23:50 44.99423 -63.82787 9701 ft 334 kts 69°
2026-05-04 23:50 45.00104 -63.79668 9329 ft 333 kts 69°
2026-05-04 23:50 45.00783 -63.76555 8945 ft 331 kts 69°
2026-05-04 23:50 45.01457 -63.73457 8591 ft 329 kts 69°
2026-05-04 23:51 45.02122 -63.70397 8232 ft 326 kts 69°
2026-05-04 23:51 45.02776 -63.67384 7878 ft 325 kts 70°
2026-05-04 23:51 45.03437 -63.64336 7500 ft 323 kts 70°
2026-05-04 23:51 45.04090 -63.61314 7164 ft 320 kts 70°
2026-05-04 23:52 45.04734 -63.58335 6790 ft 320 kts 70°
2026-05-04 23:52 45.05377 -63.55352 6456 ft 318 kts 70°
2026-05-04 23:52 45.06012 -63.52388 6236 ft 311 kts 70°
2026-05-04 23:52 45.06623 -63.49538 6133 ft 298 kts 70°
2026-05-04 23:53 45.07298 -63.46830 6033 ft 283 kts 54°
2026-05-04 23:53 45.08542 -63.44862 5826 ft 262 kts 28°
2026-05-04 23:53 45.10014 -63.43356 5596 ft 257 kts 27°
2026-05-04 23:53 45.11340 -63.41521 5364 ft 290 kts 52°
2026-05-04 23:54 45.12051 -63.38880 5138 ft 287 kts 83°
2026-05-04 23:54 45.11872 -63.36166 4914 ft 277 kts 114°
2026-05-04 23:54 45.10884 -63.33959 4662 ft 258 kts 147°
2026-05-04 23:54 45.09399 -63.32802 4425 ft 234 kts 176°
2026-05-04 23:55 45.07859 -63.32470 4191 ft 215 kts 197°
2026-05-04 23:55 45.06544 -63.33028 4124 ft 188 kts 217°
2026-05-04 23:55 45.04479 -63.34969 4111 ft 177 kts 225°
2026-05-04 23:56 45.03490 -63.35994 3987 ft 176 kts 225°
2026-05-04 23:56 45.02517 -63.36975 3819 ft 166 kts 224°
2026-05-04 23:56 45.01589 -63.37897 3559 ft 161 kts 224°
2026-05-04 23:56 45.00695 -63.38778 3320 ft 155 kts 224°
2026-05-04 23:57 44.99830 -63.39628 3087 ft 148 kts 225°
2026-05-04 23:57 44.99004 -63.40435 2863 ft 141 kts 224°
2026-05-04 23:57 44.98225 -63.41197 2668 ft 134 kts 224°
2026-05-04 23:57 44.97487 -63.41920 2499 ft 124 kts 225°
2026-05-04 23:58 44.96778 -63.42622 2358 ft 124 kts 226°
2026-05-04 23:58 44.96063 -63.43333 2204 ft 125 kts 224°
2026-05-04 23:58 44.95357 -63.44030 2042 ft 124 kts 224°
2026-05-04 23:58 44.94655 -63.44725 1898 ft 121 kts 223°
2026-05-04 23:59 44.93981 -63.45388 1724 ft 119 kts 222°
2026-05-04 23:59 44.93302 -63.46058 1564 ft 118 kts 224°
2026-05-04 23:59 44.92636 -63.46717 1393 ft 118 kts 223°
2026-05-04 23:59 44.91954 -63.47363 1232 ft 117 kts 221°
2026-05-05 00:00 44.91289 -63.48011 1098 ft 117 kts 225°
2026-05-05 00:00 44.91081 -63.48239 1036 ft 117 kts 225°
2026-05-05 00:00 44.89970 -63.49330 791 ft 118 kts 224°
2026-05-05 00:00 44.89331 -63.49982 623 ft 118 kts 221°
2026-05-05 00:01 44.88663 -63.50652 469 ft 115 kts 219°
2026-05-05 00:01 44.88082 -63.51231 453 ft 82 kts 216°
2026-05-05 00:01 44.87751 -63.51556 459 ft 38 kts 215°
2026-05-05 00:01 44.87546 -63.51759 463 ft 26 kts 214°
2026-05-05 00:02 44.87451 -63.51939 467 ft 21 kts 257°
2026-05-05 00:02 44.87460 -63.52070 467 ft 7 kts 301°
2026-05-05 00:02 44.87477 -63.52107 467 ft 4 kts 306°
2026-05-05 00:02 44.87505 -63.52118 467 ft 5 kts
2026-05-05 00:03 44.87550 -63.52079 466 ft 9 kts 36°
2026-05-05 00:03 44.87630 -63.52001 464 ft 20 kts 34°
2026-05-05 00:03 44.87753 -63.51881 462 ft 21 kts 34°
2026-05-05 00:03 44.87881 -63.51756 459 ft 22 kts 36°
2026-05-05 00:04 44.88017 -63.51621 453 ft 25 kts 34°
2026-05-05 00:04 44.88159 -63.51476 450 ft 25 kts 35°
2026-05-05 00:04 44.88301 -63.51342 450 ft 18 kts 33°
2026-05-05 00:04 44.88401 -63.51239 452 ft 17 kts 40°
2026-05-05 00:05 44.88481 -63.51212 451 ft 10 kts 348°
2026-05-05 00:05 44.88523 -63.51248 450 ft 7 kts 252°
2026-05-05 00:05 44.88511 -63.51315 450 ft 5 kts 260°
2026-05-05 00:05 44.88506 -63.51353 449 ft 0 kts 261°